カタログに戻る

ARIANE 5 R/B

運用中HEO
NORAD 36583·ROCKET BODY·🇫🇷 France

打ち上げ May 21, 2010 から Guiana Space Centre

Loading…

次のパス (今後24時間)

TLE

最新Source: Space-Track

元期: Sep 14, 2026, 08:01 UTC

1 36583U 10021C   26257.33445395  .00003525  00000-0  88638-3 0  9998
2 36583   2.7622 240.2128 7037034  99.3496 339.3473  2.59323142118248

AllMySatでARIANE 5 R/Bをリアルタイム追跡

Download on the App Store